Cloud_Cover
0 0 0 0 1 5 5 50 5 46 89 10 37 4 23 5 0 13 5 39 90 98 100 100 100 100 100 100 100 100 100 100 100 100 100 100 100 100 100 76 28 7 4
0 0 0 7 1 24 51 93 89 14 100 31 22 21 1 58 80 36 5 84 84 5 49 100 100 100 98 99 75 100 99 100 100 100 100 100 100 100 95 100 15 18 23
0 0 0 13 96 5 0 18 100 100 100 100 58 47 94 12 87 65 28 8 46 69 50 15 34 97 99 99 100 93 100 100 87 100 100 100 99 80 87 100 44 37 36
0 0 0 0 27 100 14 5 68 100 100 72 6 5 100 100 70 0 0 5 34 59 84 93 15 73 19 100 100 100 99 99 67 73 100 100 100 100 99 68 86 6 47
0 0 0 0 1 5 27 5 81 100 97 100 37 13 99 100 98 95 16 5 44 80 53 72 57 54 18 6 52 82 100 98 17 97 100 100 100 100 100 100 98 38 96
0 0 0 0 0 0 0 4 5 90 70 52 100 17 81 38 100 95 95 18 7 92 70 84 62 60 75 62 88 97 100 100 100 100 100 100 100 100 100 100 100 40 23
2 0 0 0 0 0 0 0 0 0 34 47 5 83 69 11 64 100 100 22 5 8 96 95 100 100 100 100 100 100 100 100 100 94 100 100 100 86 100 100 100 100 100
0 1 0 0 0 0 0 0 0 0 0 0 3 0 5 5 5 95 100 100 99 13 5 98 100 100 86 100 68 98 100 100 95 52 87 100 94 42 76 99 100 88 100
44 95 2 0 0 0 0 0 0 0 0 0 0 3 43 1 0 5 88 100 100 70 7 47 83 100 100 100 63 100 99 23 70 53 100 100 99 97 95 96 100 98 95
11 100 35 0 0 0 0 0 0 0 0 0 0 0 0 0 4 5 4 65 100 100 100 100 100 100 100 97 64 94 100 36 63 100 100 100 91 37 86 100 100 83 100
49 0 0 0 0 0 0 0 0 0 0 0 22 34 53 7 51 4 1 10 9 14 39 96 98 92 61 14 6 6 7 99 53 98 100 90 96 97 68 75 100 62 88
0 0 0 0 0 0 0 0 0 0 0 0 1 9 83 76 86 9 1 6 5 5 5 90 24 54 54 45 90 38 50 100 12 40 94 99 100 93 85 100 16 54 93
0 0 0 0 0 0 0 0 0 0 0 0 0 20 90 100 100 100 13 0 1 5 20 5 26 8 3 6 42 51 100 74 6 13 5 44 100 100 100 96 28 81 100
0 0 0 0 0 0 0 0 0 0 0 0 0 1 0 71 100 100 74 89 40 0 0 4 5 4 5 4 18 100 100 100 84 5 5 7 69 100 100 100 96 100 100
0 0 0 0 0 0 0 0 0 2 9 88 5 4 0 0 9 37 30 31 36 0 0 0 1 4 5 5 10 15 26 100 100 65 60 14 47 100 100 100 99 100 100
0 0 0 0 0 0 0 0 0 0 2 1 23 100 1 0 0 0 0 0 0 0 0 0 0 0 0 2 4 3 48 91 98 100 99 95 78 76 100 100 97 100 100
0 0 0 0 0 0 0 2 0 1 65 4 47 88 99 45 3 0 0 0 4 0 7 0 0 0 0 1 3 14 29 26 100 100 100 90 15 56 100 99 99 100 100
0 0 0 0 0 0 0 0 3 5 1 4 1 80 65 95 89 10 0 0 0 0 5 16 0 0 3 12 4 36 93 65 93 100 98 80 97 2 8 78 67 100 100
0 0 0 0 0 0 0 0 0 2 4 0 1 100 1 92 87 98 96 0 3 0 0 0 0 0 31 0 0 3 49 95 78 87 99 6 6 5 5 5 96 100 100
0 0 0 0 0 0 0 0 2 10 0 0 5 24 0 2 100 21 100 100 74 6 0 0 0 5 0 0 0 5 7 83 14 11 13 5 5 10 12 69 100 100 100
0 0 0 0 0 0 16 88 78 100 80 2 3 0 39 98 66 100 100 100 94 94 100 5 5 7 3 5 4 5 4 4 78 60 23 16 5 32 5 74 65 32 100
0 0 0 0 0 0 0 0 36 71 100 83 32 5 19 64 51 95 100 100 100 100 100 99 100 92 95 16 12 5 5 2 0 0 0 0 3 14 4 5 15 73 26
0 0 0 0 0 0 0 0 0 4 49 10 7 17 100 90 88 100 100 100 100 100 100 100 100 68 83 8 96 92 70 72 1 3 5 4 4 3 5 5 5 5 5
0 0 0 0 0 0 0 0 0 0 2 0 5 7 89 71 100 100 100 100 100 100 100 100 100 100 100 100 100 100 91 85 57 14 8 0 5 5 5 5 5 5 6
0 0 0 0 1 0 0 0 4 0 0 0 2 6 16 97 100 100 100 100 100 100 100 100 100 100 100 97 96 98 83 100 85 0 0 0 5 90 86 7 57 28 96
0 0 0 0 1 43 1 8 35 17 2 0 0 0 0 2 90 56 100 100 100 100 100 100 100 100 100 100 100 100 92 77 39 5 4 5 8 100 100 94 23 5 5